PRNYA SBJD-SBGW

Flight info

Callsign PRNYA
Flight time 0h 48m
Altitude 9000
Route DCT GGT DCT
Aircraft C210/L-SDFG/C

Departure

Time 2026-04-18 11:59
Airport Comte. Rolim Adolfo Amaro–Jundiaí State Airport (SBJD)

Arrival

Time 2026-04-18 12:47
Airport Edu Chaves Field (SBGW)
Time Latitude Longitude Altitude Speed Heading
2026-04-18 11:59 -23.14980 -46.80555 6426 ft 119 kts 88°
2026-04-18 11:59 -23.14972 -46.79694 6651 ft 109 kts 87°
2026-04-18 12:00 -23.14971 -46.78882 6730 ft 108 kts 88°
2026-04-18 12:00 -23.14968 -46.78055 6796 ft 112 kts 88°
2026-04-18 12:00 -23.14910 -46.77182 6855 ft 122 kts 81°
2026-04-18 12:00 -23.14816 -46.76230 6940 ft 131 kts 81°
2026-04-18 12:01 -23.14589 -46.74139 7135 ft 146 kts 82°
2026-04-18 12:01 -23.14337 -46.73105 7269 ft 140 kts 60°
2026-04-18 12:01 -23.13905 -46.72163 7395 ft 139 kts 60°
2026-04-18 12:02 -23.13479 -46.71217 7516 ft 139 kts 60°
2026-04-18 12:02 -23.13073 -46.70256 7639 ft 140 kts 63°
2026-04-18 12:02 -23.12687 -46.69293 7761 ft 139 kts 63°
2026-04-18 12:02 -23.12297 -46.68341 7870 ft 138 kts 63°
2026-04-18 12:03 -23.11909 -46.67404 7982 ft 138 kts 63°
2026-04-18 12:03 -23.11512 -46.66454 8096 ft 135 kts 63°
2026-04-18 12:03 -23.11137 -46.65542 8201 ft 133 kts 63°
2026-04-18 12:03 -23.10755 -46.64631 8312 ft 132 kts 63°
2026-04-18 12:04 -23.10481 -46.63677 8416 ft 131 kts 76°
2026-04-18 12:04 -23.10259 -46.62729 8516 ft 130 kts 75°
2026-04-18 12:04 -23.10037 -46.61766 8587 ft 132 kts 75°
2026-04-18 12:04 -23.09815 -46.60788 8673 ft 134 kts 76°
2026-04-18 12:05 -23.09606 -46.59794 8747 ft 135 kts 77°
2026-04-18 12:05 -23.09396 -46.58807 8835 ft 137 kts 77°
2026-04-18 12:05 -23.09182 -46.57797 8921 ft 137 kts 77°
2026-04-18 12:05 -23.08962 -46.56780 8985 ft 141 kts 77°
2026-04-18 12:06 -23.08723 -46.55712 8999 ft 149 kts 76°
2026-04-18 12:06 -23.08473 -46.54587 9000 ft 156 kts 77°
2026-04-18 12:06 -23.08247 -46.53552 9001 ft 161 kts 77°
2026-04-18 12:07 -23.08240 -46.53519 8988 ft 161 kts 77°
2026-04-18 12:07 -23.07972 -46.52308 8994 ft 167 kts 76°
2026-04-18 12:08 -23.07681 -46.51077 9000 ft 169 kts 75°
2026-04-18 12:08 -23.07363 -46.49832 8992 ft 172 kts 74°
2026-04-18 12:08 -23.07040 -46.48578 8992 ft 172 kts 74°
2026-04-18 12:08 -23.06713 -46.47317 8986 ft 175 kts 74°
2026-04-18 12:09 -23.06348 -46.46039 8993 ft 179 kts 72°
2026-04-18 12:09 -23.05959 -46.44757 8997 ft 179 kts 71°
2026-04-18 12:09 -23.05562 -46.43474 8995 ft 180 kts 71°
2026-04-18 12:09 -23.05157 -46.42181 8988 ft 180 kts 71°
2026-04-18 12:10 -23.04761 -46.40899 8985 ft 178 kts 71°
2026-04-18 12:10 -23.04378 -46.39642 8986 ft 178 kts 71°
2026-04-18 12:10 -23.03984 -46.38368 8986 ft 178 kts 71°
2026-04-18 12:10 -23.03594 -46.37093 8981 ft 177 kts 72°
2026-04-18 12:11 -23.03254 -46.35811 8983 ft 176 kts 75°
2026-04-18 12:11 -23.02957 -46.34513 8980 ft 177 kts 77°
2026-04-18 12:11 -23.02668 -46.33221 8979 ft 176 kts 77°
2026-04-18 12:11 -23.02382 -46.31932 8982 ft 176 kts 77°
2026-04-18 12:12 -23.02094 -46.30637 8982 ft 175 kts 77°
2026-04-18 12:12 -23.01817 -46.29347 8981 ft 176 kts 78°
2026-04-18 12:12 -23.01565 -46.28044 8987 ft 177 kts 79°
2026-04-18 12:12 -23.01308 -46.26734 8981 ft 177 kts 79°
2026-04-18 12:13 -23.01053 -46.25450 8985 ft 176 kts 79°
2026-04-18 12:13 -23.00829 -46.24145 8985 ft 176 kts 81°
2026-04-18 12:13 -23.00612 -46.22839 8989 ft 176 kts 81°
2026-04-18 12:13 -23.00393 -46.21526 8994 ft 178 kts 81°
2026-04-18 12:14 -23.00170 -46.20199 8990 ft 178 kts 81°
2026-04-18 12:14 -23.00025 -46.19327 8993 ft 177 kts 81°
2026-04-18 12:14 -22.99805 -46.18012 8990 ft 177 kts 81°
2026-04-18 12:14 -22.99579 -46.16700 8990 ft 175 kts 81°
2026-04-18 12:15 -22.99357 -46.15406 8989 ft 174 kts 81°
2026-04-18 12:15 -22.99061 -46.13691 8993 ft 175 kts 80°
2026-04-18 12:15 -22.98910 -46.12822 8992 ft 176 kts 80°
2026-04-18 12:15 -22.98685 -46.11515 8991 ft 176 kts 81°
2026-04-18 12:16 -22.98460 -46.10217 8994 ft 174 kts 80°
2026-04-18 12:16 -22.98237 -46.08921 8995 ft 176 kts 81°
2026-04-18 12:16 -22.98010 -46.07618 8993 ft 175 kts 80°
2026-04-18 12:16 -22.97782 -46.06313 8994 ft 176 kts 80°
2026-04-18 12:17 -22.97555 -46.05007 8988 ft 175 kts 80°
2026-04-18 12:17 -22.97329 -46.03717 8993 ft 174 kts 80°
2026-04-18 12:17 -22.97102 -46.02418 8993 ft 176 kts 80°
2026-04-18 12:17 -22.96871 -46.01117 8993 ft 175 kts 80°
2026-04-18 12:18 -22.96644 -45.99835 9003 ft 175 kts 80°
2026-04-18 12:18 -22.96411 -45.98527 9003 ft 177 kts 80°
2026-04-18 12:18 -22.96177 -45.97212 9007 ft 177 kts 80°
2026-04-18 12:18 -22.95943 -45.95901 8986 ft 175 kts 80°
2026-04-18 12:19 -22.95713 -45.94606 8987 ft 174 kts 80°
2026-04-18 12:19 -22.95484 -45.93303 8991 ft 176 kts 80°
2026-04-18 12:19 -22.95254 -45.92013 8992 ft 176 kts 80°
2026-04-18 12:19 -22.95021 -45.90709 8990 ft 176 kts 80°
2026-04-18 12:20 -22.94785 -45.89403 8999 ft 177 kts 80°
2026-04-18 12:20 -22.94549 -45.88098 9003 ft 176 kts 80°
2026-04-18 12:20 -22.94309 -45.86792 8997 ft 176 kts 79°
2026-04-18 12:20 -22.94068 -45.85486 8997 ft 176 kts 79°
2026-04-18 12:21 -22.93830 -45.84179 8997 ft 176 kts 79°
2026-04-18 12:21 -22.93590 -45.82876 8998 ft 177 kts 79°
2026-04-18 12:21 -22.93348 -45.81580 8999 ft 177 kts 79°
2026-04-18 12:21 -22.93106 -45.80270 8995 ft 177 kts 79°
2026-04-18 12:22 -22.92863 -45.78959 8994 ft 177 kts 79°
2026-04-18 12:22 -22.92619 -45.77649 8994 ft 177 kts 79°
2026-04-18 12:22 -22.92376 -45.76346 8998 ft 176 kts 79°
2026-04-18 12:22 -22.92128 -45.75042 8994 ft 176 kts 79°
2026-04-18 12:23 -22.91880 -45.73739 8999 ft 176 kts 79°
2026-04-18 12:23 -22.91631 -45.72438 8992 ft 176 kts 79°
2026-04-18 12:23 -22.91381 -45.71151 8996 ft 174 kts 79°
2026-04-18 12:23 -22.91132 -45.69858 8990 ft 175 kts 79°
2026-04-18 12:24 -22.90882 -45.68570 8996 ft 175 kts 79°
2026-04-18 12:24 -22.90631 -45.67279 8992 ft 175 kts 79°
2026-04-18 12:24 -22.90378 -45.65991 8994 ft 174 kts 79°
2026-04-18 12:24 -22.90132 -45.64710 8992 ft 173 kts 79°
2026-04-18 12:25 -22.89889 -45.63446 8992 ft 174 kts 79°
2026-04-18 12:25 -22.89640 -45.62162 8991 ft 175 kts 79°
2026-04-18 12:25 -22.89388 -45.60874 8987 ft 174 kts 79°
2026-04-18 12:25 -22.89137 -45.59590 8995 ft 175 kts 79°
2026-04-18 12:26 -22.88883 -45.58299 8995 ft 175 kts 79°
2026-04-18 12:26 -22.88626 -45.57013 8996 ft 174 kts 79°
2026-04-18 12:26 -22.88367 -45.55729 8995 ft 174 kts 79°
2026-04-18 12:26 -22.88108 -45.54447 8992 ft 174 kts 79°
2026-04-18 12:27 -22.87848 -45.53167 8995 ft 174 kts 79°
2026-04-18 12:27 -22.87587 -45.51884 8997 ft 174 kts 79°
2026-04-18 12:27 -22.87327 -45.50617 8999 ft 174 kts 79°
2026-04-18 12:27 -22.87065 -45.49337 9000 ft 174 kts 79°
2026-04-18 12:28 -22.86801 -45.48053 8999 ft 175 kts 78°
2026-04-18 12:28 -22.86536 -45.46772 9002 ft 174 kts 78°
2026-04-18 12:28 -22.86272 -45.45491 9000 ft 174 kts 78°
2026-04-18 12:28 -22.86007 -45.44207 8995 ft 174 kts 78°
2026-04-18 12:29 -22.85741 -45.42923 9003 ft 175 kts 78°
2026-04-18 12:29 -22.85473 -45.41634 8999 ft 175 kts 78°
2026-04-18 12:29 -22.85205 -45.40347 9020 ft 175 kts 78°
2026-04-18 12:29 -22.84936 -45.39058 9021 ft 175 kts 78°
2026-04-18 12:30 -22.84666 -45.37775 9015 ft 174 kts 78°
2026-04-18 12:30 -22.84394 -45.36493 9015 ft 174 kts 78°
2026-04-18 12:30 -22.84121 -45.35219 9012 ft 173 kts 78°
2026-04-18 12:30 -22.83849 -45.33947 9014 ft 173 kts 78°
2026-04-18 12:31 -22.83578 -45.32681 9023 ft 173 kts 78°
2026-04-18 12:31 -22.83304 -45.31409 9023 ft 173 kts 78°
2026-04-18 12:31 -22.83033 -45.30151 9027 ft 174 kts 78°
2026-04-18 12:31 -22.82756 -45.28871 9024 ft 175 kts 78°
2026-04-18 12:32 -22.82475 -45.27590 9031 ft 175 kts 78°
2026-04-18 12:32 -22.82196 -45.26307 9032 ft 175 kts 78°
2026-04-18 12:32 -22.81915 -45.25025 9028 ft 175 kts 78°
2026-04-18 12:32 -22.81635 -45.23746 9031 ft 174 kts 78°
2026-04-18 12:33 -22.81356 -45.22466 9027 ft 174 kts 78°
2026-04-18 12:33 -22.81076 -45.21192 9028 ft 173 kts 78°
2026-04-18 12:33 -22.80796 -45.19925 9019 ft 173 kts 78°
2026-04-18 12:33 -22.80517 -45.18657 9023 ft 173 kts 78°
2026-04-18 12:34 -22.80234 -45.17389 9020 ft 173 kts 78°
2026-04-18 12:34 -22.79952 -45.16119 9023 ft 173 kts 78°
2026-04-18 12:34 -22.79670 -45.14849 9022 ft 173 kts 78°
2026-04-18 12:34 -22.79391 -45.13600 9020 ft 172 kts 77°
2026-04-18 12:35 -22.79109 -45.12340 9024 ft 172 kts 78°
2026-04-18 12:35 -22.78826 -45.11073 9019 ft 174 kts 78°
2026-04-18 12:35 -22.78539 -45.09798 9031 ft 174 kts 78°
2026-04-18 12:35 -22.78252 -45.08525 9022 ft 173 kts 77°
2026-04-18 12:36 -22.77965 -45.07257 9022 ft 173 kts 77°
2026-04-18 12:36 -22.77674 -45.05987 9014 ft 174 kts 77°
2026-04-18 12:36 -22.77383 -45.04716 9013 ft 174 kts 77°
2026-04-18 12:36 -22.77095 -45.03456 9014 ft 174 kts 77°
2026-04-18 12:37 -22.76797 -45.02170 9018 ft 174 kts 77°
2026-04-18 12:37 -22.76510 -45.00921 9013 ft 171 kts 77°
2026-04-18 12:37 -22.76214 -44.99639 8778 ft 179 kts 76°
2026-04-18 12:37 -22.75519 -44.98535 8491 ft 180 kts 42°
2026-04-18 12:38 -22.74447 -44.97872 8237 ft 177 kts 18°
2026-04-18 12:38 -22.73249 -44.97577 8001 ft 176 kts
2026-04-18 12:38 -22.72040 -44.97352 7771 ft 177 kts
2026-04-18 12:38 -22.70838 -44.97300 7497 ft 171 kts 342°
2026-04-18 12:39 -22.69968 -44.98083 7222 ft 164 kts 296°
2026-04-18 12:39 -22.69443 -44.99147 7040 ft 157 kts 300°
2026-04-18 12:39 -22.68871 -45.00128 6910 ft 152 kts 300°
2026-04-18 12:39 -22.68288 -45.01062 6761 ft 151 kts 301°
2026-04-18 12:40 -22.67701 -45.01992 6611 ft 149 kts 301°
2026-04-18 12:40 -22.67120 -45.02915 6474 ft 148 kts 301°
2026-04-18 12:40 -22.66547 -45.03828 6339 ft 146 kts 301°
2026-04-18 12:40 -22.65983 -45.04724 6218 ft 142 kts 301°
2026-04-18 12:41 -22.65426 -45.05611 6088 ft 142 kts 301°
2026-04-18 12:41 -22.64929 -45.06523 5943 ft 141 kts 285°
2026-04-18 12:41 -22.65022 -45.07547 5796 ft 138 kts 245°
2026-04-18 12:41 -22.65505 -45.08448 5681 ft 139 kts 240°
2026-04-18 12:42 -22.65997 -45.09360 5562 ft 141 kts 241°
2026-04-18 12:42 -22.66493 -45.10285 5341 ft 143 kts 241°
2026-04-18 12:42 -22.67000 -45.11228 5110 ft 146 kts 241°
2026-04-18 12:42 -22.67518 -45.12192 4891 ft 150 kts 241°
2026-04-18 12:43 -22.68040 -45.13168 4645 ft 151 kts 241°
2026-04-18 12:43 -22.68572 -45.14159 4418 ft 154 kts 241°
2026-04-18 12:43 -22.69244 -45.15067 4163 ft 156 kts 223°
2026-04-18 12:43 -22.70067 -45.15817 4012 ft 152 kts 221°
2026-04-18 12:44 -22.70841 -45.16534 3842 ft 137 kts 222°
2026-04-18 12:44 -22.71504 -45.17154 3545 ft 118 kts 223°
2026-04-18 12:44 -22.72117 -45.17732 3187 ft 115 kts 221°
2026-04-18 12:44 -22.72695 -45.18275 2915 ft 105 kts 221°
2026-04-18 12:45 -22.73213 -45.18762 2744 ft 91 kts 221°
2026-04-18 12:45 -22.73679 -45.19199 2657 ft 86 kts 220°
2026-04-18 12:45 -22.74125 -45.19618 2576 ft 84 kts 220°
2026-04-18 12:45 -22.74571 -45.20020 2498 ft 83 kts 213°
2026-04-18 12:46 -22.75047 -45.20339 2466 ft 82 kts 209°
2026-04-18 12:46 -22.75615 -45.20522 2396 ft 90 kts 191°
2026-04-18 12:46 -22.76250 -45.20510 2318 ft 94 kts 175°
2026-04-18 12:46 -22.76922 -45.20453 2238 ft 98 kts 181°
2026-04-18 12:47 -22.77596 -45.20485 2063 ft 92 kts 186°
2026-04-18 12:47 -22.78231 -45.20485 1837 ft 89 kts 185°
2026-04-18 12:47 -22.78791 -45.20485 1763 ft 69 kts 179°
2026-04-18 12:47 -22.79161 -45.20477 1761 ft 26 kts 179°
2026-04-18 12:48 -22.79285 -45.20507 1755 ft 16 kts 216°
2026-04-18 12:48 -22.79369 -45.20551 1755 ft 11 kts 210°
2026-04-18 12:48 -22.79419 -45.20575 1755 ft 5 kts 185°
2026-04-18 12:48 -22.79436 -45.20574 1755 ft 0 kts 171°
2026-04-18 12:49 -22.79438 -45.20574 1755 ft 2 kts 173°
2026-04-18 12:49 -22.79501 -45.20578 1754 ft 16 kts 189°
2026-04-18 12:49 -22.79565 -45.20574 1750 ft 8 kts 211°
2026-04-18 12:50 -22.79544 -45.20588 1748 ft 3 kts
2026-04-18 12:50 -22.79536 -45.20588 1751 ft 3 kts
2026-04-18 12:50 -22.79514 -45.20616 1753 ft 5 kts 268°
2026-04-18 12:50 -22.79514 -45.20618 1753 ft 0 kts 270°